QPF
0.01 0.01 0.02 0.02 0.02 0.02 0.03 0.04 0.05 0.04 0.04 0.04 0.03 0.02 0.01 0.02 0.03 0.03 0.02 0.01 0.00 0.00 0.00 0.01 0.03 0.03 0.04 0.05 0.06 0.10 0.13 0.17 0.19 0.20 0.23 0.23 0.20 0.15 0.16 0.20 0.19 0.18 0.18 0.17
0.02 0.01 0.01 0.01 0.01 0.01 0.01 0.02 0.04 0.04 0.03 0.03 0.03 0.02 0.01 0.01 0.01 0.01 0.01 0.01 0.00 0.00 0.00 0.01 0.01 0.02 0.03 0.05 0.07 0.09 0.12 0.15 0.16 0.16 0.17 0.22 0.21 0.17 0.13 0.15 0.17 0.16 0.15 0.16
0.02 0.00 0.01 0.01 0.00 0.01 0.01 0.02 0.02 0.04 0.04 0.02 0.01 0.01 0.01 0.01 0.00 0.00 0.00 0.00 0.00 0.00 0.00 0.00 0.00 0.01 0.02 0.04 0.07 0.09 0.11 0.15 0.14 0.14 0.14 0.17 0.19 0.19 0.17 0.13 0.14 0.14 0.12 0.12
0.05 0.02 0.02 0.00 0.00 0.00 0.01 0.01 0.01 0.02 0.03 0.02 0.01 0.01 0.01 0.00 0.00 0.00 0.00 0.00 0.00 0.00 0.00 0.00 0.00 0.00 0.01 0.02 0.05 0.10 0.12 0.16 0.13 0.12 0.14 0.14 0.17 0.17 0.19 0.15 0.13 0.12 0.10 0.08
0.06 0.03 0.01 0.00 0.00 0.00 0.01 0.01 0.00 0.01 0.03 0.02 0.00 0.00 0.00 0.01 0.00 0.00 0.00 0.00 0.00 0.00 0.00 0.00 0.00 0.00 0.00 0.02 0.04 0.08 0.11 0.16 0.15 0.12 0.14 0.13 0.15 0.16 0.17 0.17 0.13 0.10 0.09 0.07
0.07 0.05 0.02 0.00 0.00 0.00 0.00 0.00 0.00 0.00 0.01 0.02 0.01 0.00 0.00 0.00 0.00 0.00 0.00 0.00 0.00 0.00 0.00 0.00 0.00 0.00 0.00 0.01 0.03 0.06 0.09 0.13 0.16 0.14 0.14 0.13 0.15 0.16 0.16 0.14 0.13 0.10 0.08 0.06
0.04 0.04 0.02 0.00 0.00 0.00 0.01 0.01 0.00 0.00 0.00 0.01 0.02 0.01 0.00 0.00 0.00 0.00 0.00 0.00 0.00 0.00 0.00 0.00 0.00 0.00 0.00 0.01 0.03 0.04 0.06 0.10 0.14 0.14 0.12 0.12 0.15 0.16 0.15 0.15 0.12 0.09 0.07 0.06
0.02 0.05 0.02 0.00 0.00 0.00 0.00 0.00 0.00 0.00 0.00 0.00 0.01 0.01 0.00 0.00 0.00 0.00 0.00 0.00 0.00 0.00 0.00 0.00 0.00 0.00 0.00 0.01 0.02 0.03 0.04 0.06 0.11 0.14 0.11 0.11 0.11 0.14 0.13 0.15 0.14 0.09 0.07 0.07
0.01 0.01 0.00 0.00 0.00 0.00 0.00 0.00 0.00 0.00 0.00 0.00 0.00 0.01 0.01 0.01 0.00 0.00 0.00 0.00 0.00 0.00 0.00 0.00 0.00 0.00 0.00 0.01 0.02 0.02 0.02 0.03 0.08 0.13 0.10 0.10 0.09 0.11 0.11 0.12 0.15 0.13 0.08 0.07
0.01 0.00 0.00 0.00 0.00 0.00 0.00 0.00 0.00 0.00 0.00 0.01 0.01 0.01 0.01 0.01 0.01 0.00 0.00 0.00 0.00 0.00 0.00 0.00 0.00 0.00 0.01 0.01 0.02 0.02 0.01 0.02 0.05 0.10 0.10 0.08 0.08 0.10 0.09 0.09 0.12 0.14 0.11 0.07
0.01 0.00 0.00 0.00 0.00 0.00 0.00 0.00 0.00 0.00 0.00 0.01 0.01 0.01 0.02 0.02 0.02 0.01 0.01 0.00 0.00 0.00 0.00 0.00 0.00 0.00 0.01 0.01 0.01 0.02 0.01 0.02 0.04 0.06 0.08 0.07 0.08 0.09 0.08 0.08 0.10 0.11 0.10 0.08
0.00 0.00 0.00 0.00 0.00 0.00 0.00 0.00 0.00 0.00 0.00 0.00 0.01 0.01 0.01 0.02 0.02 0.02 0.01 0.00 0.00 0.00 0.00 0.00 0.00 0.00 0.00 0.00 0.01 0.02 0.02 0.02 0.03 0.05 0.06 0.07 0.07 0.08 0.10 0.10 0.10 0.10 0.10 0.08
0.00 0.00 0.00 0.00 0.00 0.00 0.00 0.00 0.00 0.00 0.00 0.00 0.01 0.01 0.01 0.01 0.02 0.02 0.01 0.00 0.00 0.00 0.00 0.00 0.00 0.00 0.00 0.00 0.01 0.02 0.02 0.03 0.03 0.04 0.05 0.06 0.06 0.07 0.08 0.09 0.10 0.09 0.09 0.07
0.00 0.00 0.00 0.00 0.00 0.00 0.00 0.00 0.00 0.00 0.00 0.01 0.01 0.01 0.01 0.01 0.01 0.02 0.01 0.01 0.00 0.00 0.00 0.00 0.00 0.00 0.00 0.01 0.01 0.02 0.03 0.03 0.03 0.04 0.04 0.04 0.04 0.04 0.05 0.06 0.08 0.08 0.08 0.08
0.00 0.00 0.00 0.00 0.00 0.00 0.00 0.00 0.00 0.00 0.00 0.00 0.01 0.01 0.01 0.01 0.01 0.01 0.01 0.01 0.01 0.01 0.00 0.00 0.00 0.00 0.01 0.01 0.01 0.02 0.03 0.03 0.03 0.04 0.05 0.04 0.03 0.02 0.03 0.04 0.05 0.07 0.07 0.08
0.00 0.00 0.00 0.00 0.00 0.00 0.00 0.00 0.00 0.00 0.00 0.00 0.01 0.01 0.01 0.01 0.01 0.01 0.01 0.01 0.01 0.01 0.01 0.00 0.00 0.00 0.01 0.01 0.01 0.02 0.03 0.04 0.05 0.05 0.05 0.04 0.02 0.02 0.03 0.03 0.03 0.05 0.06 0.07
0.00 0.00 0.00 0.00 0.00 0.00 0.00 0.00 0.00 0.00 0.00 0.00 0.00 0.01 0.01 0.01 0.01 0.01 0.01 0.01 0.01 0.01 0.01 0.01 0.01 0.01 0.01 0.01 0.02 0.03 0.04 0.04 0.05 0.04 0.03 0.03 0.03 0.02 0.03 0.03 0.03 0.04 0.05 0.07
0.00 0.00 0.00 0.00 0.00 0.00 0.00 0.00 0.00 0.00 0.00 0.00 0.00 0.00 0.01 0.01 0.01 0.01 0.01 0.01 0.01 0.01 0.01 0.01 0.01 0.01 0.02 0.02 0.03 0.03 0.04 0.04 0.03 0.02 0.02 0.03 0.03 0.04 0.04 0.04 0.04 0.04 0.05 0.07
0.00 0.00 0.00 0.00 0.00 0.00 0.00 0.00 0.00 0.00 0.00 0.00 0.00 0.01 0.01 0.01 0.01 0.01 0.01 0.01 0.01 0.01 0.01 0.02 0.02 0.02 0.02 0.02 0.03 0.03 0.03 0.03 0.03 0.03 0.02 0.03 0.03 0.04 0.05 0.05 0.06 0.06 0.06 0.06
0.00 0.00 0.00 0.00 0.00 0.00 0.00 0.00 0.00 0.00 0.00 0.00 0.01 0.01 0.01 0.01 0.01 0.02 0.02 0.02 0.02 0.02 0.01 0.02 0.02 0.02 0.02 0.02 0.03 0.03 0.03 0.03 0.03 0.04 0.04 0.04 0.03 0.04 0.05 0.05 0.05 0.06 0.07 0.07
0.00 0.00 0.00 0.00 0.00 0.00 0.00 0.00 0.00 0.00 0.00 0.01 0.01 0.02 0.02 0.02 0.02 0.02 0.03 0.02 0.02 0.02 0.02 0.02 0.02 0.02 0.02 0.02 0.02 0.03 0.03 0.03 0.03 0.04 0.04 0.04 0.04 0.05 0.05 0.06 0.06 0.06 0.08 0.08
0.00 0.00 0.00 0.00 0.00 0.00 0.00 0.00 0.00 0.01 0.01 0.01 0.01 0.02 0.02 0.02 0.02 0.02 0.03 0.03 0.03 0.03 0.03 0.03 0.02 0.02 0.02 0.03 0.03 0.03 0.03 0.03 0.03 0.04 0.05 0.05 0.05 0.05 0.05 0.06 0.07 0.07 0.07 0.09
0.00 0.00 0.00 0.00 0.00 0.00 0.00 0.00 0.00 0.01 0.01 0.02 0.02 0.03 0.03 0.03 0.03 0.03 0.03 0.03 0.04 0.04 0.04 0.03 0.03 0.03 0.03 0.02 0.02 0.03 0.03 0.03 0.03 0.04 0.06 0.06 0.06 0.06 0.05 0.07 0.09 0.09 0.08 0.09
0.00 0.00 0.00 0.00 0.00 0.00 0.00 0.00 0.00 0.01 0.01 0.02 0.03 0.03 0.03 0.03 0.03 0.03 0.04 0.04 0.04 0.04 0.03 0.03 0.03 0.02 0.02 0.02 0.02 0.03 0.03 0.03 0.03 0.04 0.06 0.06 0.07 0.07 0.07 0.08 0.10 0.11 0.09 0.09
0.00 0.00 0.00 0.00 0.00 0.00 0.00 0.00 0.00 0.00 0.01 0.01 0.02 0.02 0.02 0.03 0.04 0.04 0.04 0.04 0.04 0.04 0.03 0.03 0.03 0.03 0.02 0.02 0.02 0.03 0.03 0.03 0.04 0.04 0.06 0.07 0.08 0.08 0.08 0.09 0.11 0.11 0.09 0.09
0.00 0.00 0.00 0.00 0.00 0.00 0.01 0.01 0.01 0.01 0.01 0.02 0.02 0.02 0.02 0.03 0.04 0.05 0.05 0.05 0.05 0.05 0.05 0.04 0.04 0.03 0.02 0.02 0.02 0.03 0.03 0.03 0.04 0.04 0.05 0.06 0.07 0.08 0.09 0.09 0.10 0.10 0.09 0.09
0.00 0.00 0.00 0.00 0.00 0.01 0.01 0.01 0.01 0.01 0.02 0.02 0.02 0.02 0.03 0.04 0.05 0.05 0.04 0.04 0.04 0.04 0.04 0.04 0.04 0.03 0.03 0.03 0.03 0.03 0.03 0.03 0.03 0.04 0.05 0.06 0.07 0.08 0.09 0.09 0.10 0.10 0.10 0.10
MSLP
1015.28 1015.41 1015.51 1015.50 1015.30 1014.86 1014.15 1013.16 1011.96 1010.62 1009.26 1007.99 1006.92 1006.12 1005.63 1005.41 1005.42 1005.58 1005.79 1005.97 1006.03 1005.97 1005.76 1005.45 1005.07 1004.67 1004.30 1003.97 1003.67 1003.37 1003.04 1002.62 1002.09 1001.43 1000.65 999.78 998.88 998.02 997.27 996.68 996.29 996.11 996.15 996.38
1013.68 1013.63 1013.53 1013.33 1012.98 1012.44 1011.70 1010.78 1009.72 1008.60 1007.50 1006.51 1005.70 1005.12 1004.78 1004.66 1004.70 1004.84 1005.00 1005.12 1005.16 1005.09 1004.91 1004.67 1004.39 1004.11 1003.85 1003.62 1003.41 1003.18 1002.90 1002.53 1002.04 1001.42 1000.69 999.88 999.04 998.23 997.50 996.90 996.46 996.20 996.12 996.21
1011.97 1011.73 1011.45 1011.09 1010.63 1010.04 1009.33 1008.52 1007.65 1006.77 1005.94 1005.22 1004.65 1004.26 1004.05 1003.98 1004.03 1004.13 1004.23 1004.29 1004.29 1004.22 1004.08 1003.91 1003.72 1003.54 1003.39 1003.25 1003.10 1002.92 1002.68 1002.34 1001.88 1001.31 1000.64 999.89 999.11 998.35 997.66 997.06 996.59 996.26 996.08 996.03
1010.33 1009.92 1009.48 1009.00 1008.47 1007.87 1007.23 1006.55 1005.87 1005.22 1004.65 1004.16 1003.80 1003.57 1003.45 1003.41 1003.44 1003.48 1003.53 1003.54 1003.51 1003.43 1003.34 1003.22 1003.12 1003.03 1002.95 1002.87 1002.76 1002.61 1002.37 1002.04 1001.60 1001.06 1000.42 999.73 999.01 998.31 997.65 997.07 996.58 996.20 995.93 995.78
1008.91 1008.35 1007.78 1007.21 1006.63 1006.05 1005.48 1004.94 1004.44 1004.00 1003.62 1003.34 1003.13 1003.01 1002.94 1002.92 1002.92 1002.92 1002.91 1002.88 1002.83 1002.77 1002.71 1002.65 1002.61 1002.58 1002.54 1002.49 1002.40 1002.23 1001.98 1001.64 1001.19 1000.65 1000.04 999.39 998.72 998.07 997.45 996.89 996.39 995.97 995.63 995.39
1007.78 1007.09 1006.42 1005.77 1005.16 1004.61 1004.11 1003.68 1003.32 1003.04 1002.83 1002.67 1002.58 1002.53 1002.49 1002.47 1002.45 1002.41 1002.37 1002.32 1002.27 1002.23 1002.20 1002.19 1002.19 1002.20 1002.18 1002.13 1002.02 1001.82 1001.53 1001.16 1000.69 1000.15 999.55 998.92 998.29 997.66 997.07 996.52 996.01 995.55 995.16 994.86
1006.89 1006.09 1005.34 1004.64 1004.02 1003.49 1003.05 1002.70 1002.45 1002.27 1002.16 1002.09 1002.06 1002.04 1002.03 1002.01 1001.97 1001.92 1001.87 1001.83 1001.79 1001.78 1001.79 1001.82 1001.85 1001.87 1001.85 1001.78 1001.63 1001.40 1001.07 1000.65 1000.16 999.60 999.01 998.39 997.77 997.16 996.58 996.02 995.49 995.00 994.57 994.21
1006.09 1005.22 1004.42 1003.70 1003.08 1002.57 1002.17 1001.88 1001.68 1001.57 1001.51 1001.49 1001.50 1001.50 1001.50 1001.48 1001.45 1001.41 1001.38 1001.36 1001.37 1001.39 1001.44 1001.49 1001.54 1001.57 1001.53 1001.43 1001.25 1000.98 1000.61 1000.17 999.65 999.09 998.49 997.89 997.27 996.66 996.06 995.47 994.91 994.38 993.90 993.51
1005.19 1004.30 1003.49 1002.77 1002.17 1001.69 1001.33 1001.07 1000.92 1000.84 1000.81 1000.82 1000.84 1000.86 1000.87 1000.87 1000.87 1000.87 1000.88 1000.90 1000.95 1001.02 1001.10 1001.17 1001.23 1001.24 1001.20 1001.08 1000.87 1000.58 1000.20 999.74 999.23 998.67 998.08 997.47 996.85 996.22 995.58 994.95 994.34 993.75 993.23 992.81
1004.02 1003.15 1002.37 1001.70 1001.14 1000.71 1000.39 1000.18 1000.06 1000.00 1000.00 1000.02 1000.06 1000.11 1000.15 1000.19 1000.23 1000.28 1000.34 1000.42 1000.52 1000.62 1000.73 1000.82 1000.88 1000.88 1000.83 1000.70 1000.48 1000.19 999.82 999.39 998.90 998.37 997.79 997.19 996.55 995.88 995.20 994.51 993.82 993.18 992.60 992.15
1002.49 1001.68 1000.98 1000.39 999.91 999.56 999.31 999.15 999.08 999.06 999.08 999.14 999.21 999.29 999.38 999.47 999.58 999.68 999.81 999.94 1000.08 1000.21 1000.32 1000.41 1000.47 1000.46 1000.40 1000.27 1000.07 999.81 999.48 999.09 998.66 998.16 997.61 997.01 996.35 995.64 994.90 994.13 993.37 992.66 992.04 991.55
1000.62 999.92 999.33 998.86 998.50 998.26 998.10 998.03 998.02 998.06 998.14 998.24 998.36 998.49 998.64 998.79 998.96 999.13 999.30 999.47 999.64 999.78 999.89 999.97 1000.01 999.99 999.93 999.81 999.64 999.42 999.16 998.83 998.45 998.00 997.48 996.88 996.20 995.45 994.63 993.79 992.96 992.18 991.52 991.02
998.57 998.01 997.57 997.25 997.04 996.93 996.90 996.93 997.01 997.13 997.27 997.43 997.61 997.81 998.02 998.23 998.45 998.67 998.88 999.07 999.24 999.37 999.47 999.52 999.53 999.50 999.44 999.34 999.20 999.03 998.82 998.56 998.24 997.83 997.33 996.73 996.02 995.22 994.34 993.43 992.54 991.72 991.03 990.54
996.59 996.19 995.92 995.77 995.73 995.77 995.87 996.02 996.19 996.39 996.61 996.84 997.08 997.33 997.59 997.84 998.10 998.35 998.57 998.76 998.91 999.02 999.08 999.10 999.08 999.03 998.96 998.88 998.77 998.64 998.48 998.27 997.98 997.60 997.11 996.49 995.75 994.90 993.97 993.01 992.07 991.23 990.55 990.10
994.96 994.73 994.63 994.66 994.77 994.95 995.18 995.43 995.70 995.97 996.25 996.53 996.82 997.10 997.39 997.67 997.94 998.19 998.40 998.57 998.69 998.76 998.78 998.76 998.70 998.63 998.55 998.46 998.37 998.27 998.13 997.94 997.67 997.29 996.78 996.14 995.35 994.46 993.49 992.50 991.56 990.73 990.09 989.71
993.91 993.85 993.91 994.09 994.34 994.64 994.96 995.30 995.63 995.95 996.26 996.56 996.85 997.15 997.43 997.70 997.95 998.17 998.35 998.48 998.56 998.59 998.56 998.50 998.41 998.32 998.22 998.13 998.03 997.93 997.79 997.59 997.30 996.89 996.35 995.66 994.84 993.91 992.92 991.94 991.02 990.24 989.70 989.41
993.59 993.67 993.87 994.16 994.51 994.88 995.26 995.63 995.98 996.31 996.61 996.90 997.17 997.42 997.67 997.90 998.10 998.28 998.41 998.48 998.51 998.49 998.43 998.34 998.22 998.10 997.99 997.87 997.76 997.63 997.46 997.21 996.88 996.42 995.83 995.09 994.23 993.29 992.32 991.36 990.51 989.84 989.41 989.26
994.02 994.22 994.50 994.85 995.25 995.65 996.03 996.39 996.71 996.99 997.24 997.47 997.67 997.86 998.03 998.19 998.32 998.42 998.49 998.52 998.50 998.44 998.35 998.22 998.09 997.95 997.82 997.67 997.52 997.35 997.12 996.82 996.42 995.90 995.25 994.47 993.60 992.67 991.73 990.85 990.11 989.57 989.29 989.31
995.10 995.36 995.69 996.06 996.44 996.81 997.15 997.44 997.68 997.88 998.04 998.16 998.27 998.35 998.42 998.49 998.53 998.56 998.56 998.53 998.47 998.38 998.26 998.12 997.97 997.81 997.64 997.47 997.28 997.04 996.75 996.38 995.91 995.33 994.63 993.84 992.98 992.09 991.23 990.47 989.87 989.49 989.39 989.59
996.60 996.89 997.22 997.55 997.87 998.16 998.41 998.60 998.73 998.81 998.85 998.85 998.84 998.80 998.77 998.72 998.68 998.62 998.55 998.47 998.36 998.24 998.09 997.94 997.77 997.59 997.39 997.18 996.93 996.64 996.28 995.85 995.32 994.70 993.99 993.21 992.40 991.60 990.86 990.26 989.83 989.64 989.73 990.11
998.30 998.56 998.84 999.09 999.32 999.51 999.63 999.70 999.70 999.66 999.56 999.44 999.30 999.15 998.99 998.85 998.71 998.57 998.43 998.29 998.14 997.98 997.80 997.62 997.42 997.21 996.98 996.72 996.42 996.07 995.66 995.18 994.62 993.99 993.31 992.59 991.87 991.20 990.63 990.21 989.99 990.00 990.29 990.85
999.95 1000.16 1000.34 1000.50 1000.62 1000.67 1000.67 1000.61 1000.48 1000.31 1000.09 999.85 999.59 999.33 999.08 998.84 998.61 998.39 998.18 997.97 997.77 997.57 997.35 997.12 996.88 996.63 996.35 996.03 995.68 995.29 994.84 994.34 993.79 993.19 992.57 991.96 991.38 990.89 990.52 990.32 990.32 990.55 991.04 991.77
1001.39 1001.51 1001.59 1001.63 1001.63 1001.56 1001.43 1001.25 1001.01 1000.72 1000.40 1000.05 999.70 999.35 999.01 998.68 998.37 998.08 997.80 997.53 997.26 996.99 996.72 996.43 996.13 995.82 995.47 995.11 994.72 994.29 993.83 993.34 992.83 992.31 991.80 991.34 990.95 990.67 990.53 990.57 990.80 991.26 991.93 992.81
1002.51 1002.52 1002.50 1002.42 1002.30 1002.12 1001.88 1001.59 1001.25 1000.88 1000.47 1000.05 999.62 999.20 998.78 998.39 998.01 997.64 997.29 996.95 996.61 996.26 995.91 995.56 995.19 994.80 994.40 993.98 993.56 993.11 992.66 992.22 991.79 991.39 991.04 990.77 990.59 990.55 990.66 990.95 991.42 992.08 992.92 993.94
1003.27 1003.18 1003.05 1002.87 1002.64 1002.36 1002.03 1001.65 1001.24 1000.79 1000.32 999.84 999.35 998.87 998.40 997.95 997.51 997.08 996.66 996.24 995.83 995.41 994.99 994.55 994.11 993.66 993.21 992.75 992.30 991.87 991.47 991.09 990.78 990.53 990.36 990.30 990.37 990.58 990.94 991.47 992.16 993.01 994.00 995.13
1003.68 1003.50 1003.28 1003.01 1002.69 1002.33 1001.92 1001.47 1000.98 1000.48 999.96 999.42 998.89 998.37 997.86 997.35 996.86 996.38 995.91 995.43 994.95 994.47 993.98 993.48 992.98 992.48 992.00 991.53 991.10 990.71 990.37 990.11 989.93 989.85 989.89 990.05 990.36 990.81 991.41 992.15 993.03 994.05 995.17 996.37
1003.80 1003.54 1003.24 1002.90 1002.50 1002.06 1001.58 1001.07 1000.53 999.96 999.39 998.81 998.24 997.68 997.13 996.59 996.06 995.54 995.03 994.52 994.00 993.47 992.95 992.42 991.90 991.40 990.91 990.47 990.09 989.77 989.54 989.41 989.39 989.49 989.73 990.11 990.64 991.30 992.11 993.04 994.08 995.22 996.42 997.68
Thickness
5442 5449 5443 5442 5447 5444 5437 5438 5437 5453 5459 5474 5475 5471 5470 5469 5469 5471 5473 5475 5477 5478 5480 5483 5486 5490 5496 5501 5507 5514 5521 5528 5536 5544 5550 5556 5563 5570 5576 5581 5587 5590 5594 5597
5435 5443 5440 5443 5452 5451 5447 5445 5443 5447 5455 5469 5466 5465 5462 5462 5462 5464 5466 5468 5470 5471 5472 5475 5477 5481 5486 5492 5498 5505 5511 5518 5526 5534 5541 5547 5554 5561 5568 5574 5579 5584 5587 5591
5426 5431 5428 5435 5454 5453 5449 5449 5446 5445 5457 5462 5459 5460 5459 5458 5457 5457 5459 5461 5461 5462 5463 5466 5469 5473 5477 5483 5488 5494 5501 5508 5516 5524 5531 5538 5545 5552 5560 5566 5571 5576 5580 5584
5412 5410 5414 5454 5457 5454 5448 5451 5449 5449 5453 5453 5453 5454 5453 5451 5449 5449 5452 5453 5453 5454 5456 5458 5460 5464 5468 5473 5479 5485 5491 5497 5505 5513 5521 5529 5536 5544 5550 5557 5563 5569 5573 5577
5402 5399 5413 5440 5447 5441 5436 5440 5446 5444 5447 5447 5446 5443 5442 5445 5444 5443 5444 5446 5446 5446 5447 5449 5451 5455 5458 5463 5468 5474 5481 5488 5496 5504 5512 5520 5528 5535 5542 5548 5554 5561 5566 5570
5396 5395 5407 5436 5442 5440 5432 5426 5439 5437 5437 5436 5434 5426 5433 5438 5436 5436 5437 5438 5438 5439 5439 5440 5442 5445 5449 5453 5458 5464 5471 5479 5487 5495 5503 5511 5519 5526 5533 5540 5547 5553 5558 5562
5393 5392 5407 5430 5432 5429 5414 5421 5432 5430 5428 5426 5421 5421 5426 5428 5428 5429 5429 5429 5430 5430 5430 5431 5433 5436 5439 5443 5449 5455 5462 5469 5478 5486 5494 5503 5510 5518 5525 5532 5538 5545 5550 5553
5384 5386 5405 5426 5419 5416 5418 5423 5423 5421 5420 5418 5417 5418 5418 5419 5420 5420 5420 5421 5421 5420 5421 5422 5425 5427 5430 5433 5440 5446 5453 5460 5468 5477 5486 5494 5501 5509 5516 5523 5530 5536 5541 5544
5393 5407 5418 5417 5417 5419 5416 5414 5414 5413 5412 5411 5409 5409 5410 5410 5410 5411 5412 5412 5412 5412 5412 5414 5416 5418 5421 5425 5431 5437 5443 5450 5458 5467 5475 5483 5492 5499 5506 5514 5521 5527 5532 5536
5386 5399 5406 5407 5408 5410 5408 5406 5407 5406 5405 5403 5401 5401 5401 5401 5400 5401 5402 5402 5403 5402 5403 5405 5407 5410 5413 5418 5422 5428 5434 5441 5447 5455 5464 5473 5481 5490 5497 5504 5510 5517 5522 5527
5383 5394 5396 5400 5402 5403 5402 5400 5399 5399 5397 5395 5394 5394 5394 5393 5393 5393 5394 5394 5393 5393 5395 5397 5399 5402 5406 5410 5414 5419 5425 5431 5438 5446 5454 5463 5471 5479 5487 5495 5501 5507 5513 5517
5387 5394 5390 5394 5397 5396 5393 5393 5392 5390 5389 5389 5387 5387 5387 5387 5387 5387 5387 5387 5386 5386 5387 5389 5391 5394 5398 5402 5406 5410 5416 5422 5429 5436 5444 5452 5461 5469 5477 5484 5490 5496 5503 5507
5391 5393 5390 5391 5390 5388 5387 5386 5384 5382 5381 5381 5381 5380 5380 5380 5380 5379 5380 5379 5379 5379 5380 5381 5384 5387 5390 5394 5398 5403 5408 5414 5420 5426 5433 5441 5448 5456 5463 5471 5478 5485 5491 5497
5385 5383 5380 5381 5380 5380 5378 5377 5376 5375 5374 5374 5374 5373 5373 5372 5372 5372 5372 5372 5372 5372 5373 5374 5377 5380 5383 5387 5391 5395 5400 5406 5412 5417 5423 5430 5436 5443 5450 5457 5464 5471 5478 5485
5375 5373 5372 5373 5371 5369 5368 5366 5365 5365 5366 5366 5366 5366 5365 5364 5364 5365 5365 5364 5364 5365 5366 5368 5371 5374 5377 5380 5384 5388 5393 5398 5403 5408 5414 5420 5426 5432 5438 5444 5451 5459 5466 5472
5364 5364 5362 5361 5360 5359 5358 5356 5355 5356 5356 5357 5357 5357 5357 5356 5356 5356 5356 5356 5356 5358 5360 5363 5365 5368 5370 5374 5377 5381 5385 5391 5395 5400 5406 5411 5416 5421 5427 5433 5440 5447 5454 5460
5352 5353 5352 5350 5350 5350 5349 5348 5348 5349 5349 5349 5350 5349 5348 5348 5348 5348 5348 5349 5350 5352 5354 5356 5359 5362 5364 5368 5370 5373 5377 5382 5387 5391 5397 5402 5407 5411 5417 5423 5430 5436 5443 5449
5346 5346 5345 5343 5342 5342 5342 5342 5342 5341 5341 5342 5342 5341 5340 5340 5340 5340 5340 5341 5343 5346 5349 5351 5354 5356 5359 5361 5364 5366 5369 5374 5378 5383 5388 5394 5398 5403 5407 5413 5420 5426 5432 5438
5337 5336 5335 5335 5335 5334 5334 5334 5334 5334 5334 5333 5333 5332 5332 5332 5332 5333 5333 5334 5336 5340 5343 5345 5349 5350 5353 5356 5359 5361 5363 5367 5371 5376 5381 5387 5391 5394 5399 5405 5411 5418 5423 5428
5327 5326 5325 5325 5325 5324 5324 5324 5324 5324 5324 5324 5324 5324 5324 5324 5325 5325 5327 5328 5331 5334 5337 5339 5341 5344 5346 5349 5353 5355 5357 5360 5364 5368 5373 5378 5382 5386 5392 5397 5403 5409 5414 5418
5315 5314 5314 5313 5314 5314 5314 5314 5314 5315 5315 5315 5315 5316 5316 5317 5317 5318 5320 5323 5328 5329 5331 5335 5336 5338 5340 5343 5347 5349 5351 5354 5357 5361 5366 5370 5374 5379 5383 5389 5395 5400 5405 5409
5304 5303 5303 5303 5303 5303 5304 5304 5304 5305 5306 5306 5307 5307 5308 5310 5311 5313 5315 5318 5322 5325 5326 5328 5330 5333 5336 5340 5341 5343 5346 5348 5351 5354 5358 5363 5367 5372 5377 5382 5386 5391 5396 5400
5293 5293 5293 5293 5293 5293 5294 5294 5295 5296 5297 5298 5299 5300 5302 5303 5305 5308 5311 5315 5317 5320 5321 5322 5325 5329 5332 5334 5336 5338 5340 5342 5345 5348 5352 5356 5361 5365 5370 5375 5379 5384 5389 5393
5285 5284 5283 5282 5282 5283 5284 5286 5286 5288 5289 5291 5293 5294 5295 5297 5301 5303 5306 5310 5313 5315 5316 5318 5321 5325 5327 5328 5330 5331 5333 5336 5339 5342 5346 5351 5355 5359 5364 5369 5373 5378 5383 5387
5274 5273 5273 5273 5274 5275 5277 5278 5279 5281 5282 5285 5287 5289 5290 5292 5295 5298 5300 5304 5307 5309 5310 5312 5316 5319 5320 5321 5323 5325 5328 5331 5334 5337 5342 5346 5351 5355 5359 5364 5369 5374 5378 5382
5265 5265 5265 5265 5266 5267 5269 5271 5272 5275 5277 5280 5282 5285 5286 5288 5290 5293 5295 5298 5300 5303 5304 5306 5308 5311 5313 5315 5318 5320 5323 5327 5330 5333 5338 5342 5347 5351 5355 5360 5365 5370 5374 5378
5257 5257 5258 5260 5261 5262 5263 5264 5267 5269 5271 5274 5277 5280 5282 5285 5287 5289 5290 5293 5295 5297 5298 5301 5303 5306 5308 5310 5313 5316 5320 5323 5326 5330 5334 5339 5343 5348 5353 5357 5362 5366 5370 5374